Weather History for Kill Devil Hills, NC

Change the Weather History Date:

Wednesday, November 27, 2013

  Actual Average (KMQI) Record (KMQI)
Temperature  
Mean Temperature 51 °F -  
Max Temperature 64 °F 57 °F 76 °F (1985)
Min Temperature 38 °F 44 °F 29 °F (1977)
Degree Days  
Heating Degree Days 14    
Growing Degree Days 1 (Base 50)    
Moisture  
Dew Point 49 °F    
Average Humidity 93    
Maximum Humidity 98    
Minimum Humidity 76    
Precipitation  
Precipitation 2.09 in - - ()
Sea Level Pressure  
Sea Level Pressure 29.63 in    
Wind  
Wind Speed 11 mph (West)    
Max Wind Speed 17 mph    
Max Gust Speed 34 mph    
Visibility 6 miles    
Events Rain    
Averages and records for this station are not official NWS values.
T = Trace of Precipitation, MM = Missing Value Source: NWS Daily Summary

Daily Weather History Graph

Daily Weather History Graph

Search for Another Location

Airport:

Trip Planner

Search our weather history database for the weather conditions in past years. The results will help you decide how hot, cold, wet, or windy it might be!

Date:

Astronomy

Nov. 27, 2013 Rise Set
Actual Time 6:51 AM EST 4:49 PM EST
Civil Twilight 6:23 AM EST 5:17 PM EST
Nautical Twilight 5:51 AM EST 5:48 PM EST
Astronomical Twilight 5:20 AM EST 6:19 PM EST
Moon 1:01 AM EST (11/27) 1:16 PM EST (11/27)
Length of Visible Light 10h 53m
Length of Day
9h 58m
Waning Crescent, 32% of the Moon is Illuminated
Nov 27
Waning Crescent
Dec 2
New
Dec 9
First Quarter
Dec 17
Full
Dec 25
Last Quarter

Hourly Weather History & Observations

Time (EST) Temp. Windchill Dew Point Humidity Pressure Visibility Wind Dir Wind Speed Gust Speed Precip Events Conditions
12:15 AM 64.2 °F - 63.5 °F 98% 29.62 in 1.5 mi SE 17.3 mph 34.5 mph 0.14 in Rain Heavy Rain
12:35 AM 64.2 °F - 63.7 °F 98% 29.63 in 0.8 mi South 13.8 mph 31.1 mph 0.56 in Rain Rain
12:55 AM 62.4 °F - 61.7 °F 97% 29.63 in 5.0 mi SSW 10.4 mph 23.0 mph 0.59 in Rain Light Rain
1:15 AM 62.6 °F - 61.9 °F 97% 29.62 in 7.0 mi South 11.5 mph 18.4 mph N/A   Overcast
1:35 AM 62.6 °F - 61.9 °F 97% 29.62 in 7.0 mi SSW 11.5 mph 19.6 mph N/A   Overcast
1:55 AM 62.6 °F - 61.7 °F 97% 29.61 in 5.0 mi SW 10.4 mph 20.7 mph N/A   Mostly Cloudy
2:15 AM 62.2 °F - 61.5 °F 97% 29.60 in 5.0 mi SSW 10.4 mph 19.6 mph N/A   Mostly Cloudy
2:35 AM 61.9 °F - 61.2 °F 97% 29.59 in 5.0 mi South 10.4 mph 25.3 mph N/A   Mostly Cloudy
2:55 AM 62.2 °F - 61.5 °F 97% 29.57 in 5.0 mi South 10.4 mph 19.6 mph N/A   Mostly Cloudy
3:15 AM 62.4 °F - 61.5 °F 97% 29.57 in 5.0 mi SSW 8.1 mph 19.6 mph N/A Rain Rain
3:35 AM 62.8 °F - 61.9 °F 97% 29.57 in 2.0 mi SSW 8.1 mph - 0.07 in Rain Rain
3:55 AM 62.4 °F - 61.7 °F 97% 29.57 in 1.2 mi SSW 11.5 mph 17.3 mph 0.23 in Rain Heavy Rain
4:15 AM 63.1 °F - 62.4 °F 97% 29.56 in 1.0 mi SSW 9.2 mph 20.7 mph 0.27 in Rain Heavy Rain
4:35 AM 63.0 °F - 62.4 °F 98% 29.55 in 2.5 mi SSW 8.1 mph - 0.49 in Rain Heavy Rain
4:55 AM 63.1 °F - 62.6 °F 98% 29.54 in 7.0 mi SSW 5.8 mph - 0.52 in Rain Rain
5:15 AM 63.3 °F - 62.8 °F 98% 29.52 in 5.0 mi South 6.9 mph - N/A   Overcast
5:35 AM 63.3 °F - 62.8 °F 98% 29.51 in 5.0 mi SSW 9.2 mph 16.1 mph N/A   Overcast
5:55 AM 63.1 °F - 62.4 °F 97% 29.51 in 4.0 mi SSW 6.9 mph 17.3 mph N/A   Drizzle
6:15 AM 62.2 °F - 61.5 °F 97% 29.50 in 5.0 mi SSW 8.1 mph 17.3 mph N/A   Light Drizzle
6:35 AM 62.2 °F - 61.7 °F 98% 29.50 in 5.0 mi SSW 10.4 mph 20.7 mph N/A Rain Light Rain
6:55 AM 62.4 °F - 61.7 °F 97% 29.50 in 5.0 mi SSW 9.2 mph 19.6 mph N/A   Scattered Clouds
7:15 AM 62.2 °F - 61.5 °F 97% 29.48 in 7.0 mi SSW 9.2 mph 17.3 mph N/A   Scattered Clouds
7:35 AM 62.8 °F - 61.9 °F 97% 29.47 in 7.0 mi SSW 8.1 mph 19.6 mph N/A   Mostly Cloudy
7:55 AM 62.8 °F - 61.9 °F 97% 29.47 in 7.0 mi SSW 11.5 mph 21.9 mph N/A   Mostly Cloudy
8:15 AM 62.8 °F - 62.1 °F 97% 29.46 in 7.0 mi South 6.9 mph 16.1 mph N/A   Overcast
8:35 AM 63.3 °F - 62.4 °F 97% 29.45 in 5.0 mi South 6.9 mph - N/A   Scattered Clouds
8:55 AM 63.0 °F - 62.1 °F 97% 29.43 in 7.0 mi SSW 5.8 mph - N/A   Clear
9:15 AM 62.8 °F - 61.7 °F 96% 29.43 in 7.0 mi South 6.9 mph - N/A Rain Light Rain
9:35 AM 62.4 °F - 61.5 °F 97% 29.42 in 3.0 mi South 5.8 mph - 0.03 in Rain Rain
9:55 AM 62.6 °F - 61.9 °F 97% 29.42 in 4.0 mi South 8.1 mph - 0.06 in Rain Rain
10:15 AM 62.4 °F - 61.7 °F 97% 29.41 in 1.8 mi SW 6.9 mph - 0.16 in Rain Heavy Rain
10:35 AM 60.4 °F - 59.9 °F 98% 29.43 in 1.8 mi NW 9.2 mph 24.2 mph 0.37 in Rain Heavy Rain
10:55 AM 51.4 °F - 50.5 °F 97% 29.43 in 2.5 mi NNW 12.7 mph 25.3 mph 0.51 in Rain Heavy Rain
11:15 AM 47.7 °F - 46.9 °F 97% 29.42 in 7.0 mi North 8.1 mph 20.7 mph N/A Rain Light Rain
11:35 AM 47.3 °F - 46.8 °F 98% 29.42 in 7.0 mi NNW 10.4 mph 21.9 mph 0.01 in   Overcast
11:55 AM 46.6 °F - 45.9 °F 97% 29.44 in 2.5 mi NNW 11.5 mph 19.6 mph 0.02 in Rain Heavy Rain
12:15 PM 45.7 °F 39.5 °F 45.0 °F 97% 29.41 in 4.0 mi NNW 13.8 mph 23.0 mph 0.02 in Rain Rain
12:35 PM 44.1 °F 39.5 °F 43.5 °F 98% 29.46 in 7.0 mi WNW 8.1 mph 20.7 mph 0.04 in Rain Light Rain
12:55 PM 43.7 °F 38.6 °F 43.0 °F 97% 29.43 in 10.0 mi NW 9.2 mph 20.7 mph 0.05 in Rain Rain
1:15 PM 43.2 °F 38.4 °F 42.4 °F 97% 29.53 in 10.0 mi NW 8.1 mph 16.1 mph 0.01 in Rain Rain
1:35 PM 43.2 °F 39.0 °F 42.4 °F 97% 29.47 in 5.0 mi North 6.9 mph - 0.09 in Rain Light Rain
1:55 PM 43.2 °F 37.0 °F 42.4 °F 97% 29.47 in 7.0 mi NNW 11.5 mph 18.4 mph 0.10 in Rain Light Rain
2:15 PM 43.5 °F 38.9 °F 42.8 °F 97% 29.47 in 10.0 mi NW 8.1 mph - N/A   Overcast
2:35 PM 43.2 °F 36.6 °F 42.3 °F 97% 29.53 in 10.0 mi WNW 12.7 mph 21.9 mph N/A Rain Rain
2:55 PM 42.4 °F 36.5 °F 41.4 °F 96% 29.56 in 4.0 mi NW 10.4 mph 17.3 mph N/A   Drizzle
3:15 PM 41.9 °F 35.0 °F 40.6 °F 95% 29.59 in 2.0 mi NW 12.7 mph 20.7 mph 0.01 in   Drizzle
3:35 PM 41.4 °F 35.7 °F 40.5 °F 97% 29.60 in 2.5 mi NW 9.2 mph 19.6 mph 0.01 in   Light Drizzle
3:55 PM 41.2 °F 35.0 °F 40.3 °F 97% 29.62 in 2.5 mi NW 10.4 mph 16.1 mph 0.01 in   Overcast
4:15 PM 40.3 °F 32.2 °F 39.6 °F 97% 29.65 in 5.0 mi NW 15.0 mph 24.2 mph N/A   Light Drizzle
4:35 PM 39.4 °F 31.8 °F 38.5 °F 97% 29.67 in 10.0 mi NW 12.7 mph 20.7 mph N/A   Overcast
4:55 PM 39.2 °F 31.2 °F 37.8 °F 95% 29.70 in 7.0 mi NW 13.8 mph 27.6 mph N/A   Overcast
5:15 PM 39.0 °F 31.8 °F 37.6 °F 95% 29.73 in 2.0 mi NW 11.5 mph 25.3 mph N/A   Drizzle
5:35 PM 38.7 °F 30.9 °F 37.4 °F 95% 29.76 in 10.0 mi NW 12.7 mph 24.2 mph N/A   Overcast
5:55 PM 38.3 °F 30.9 °F 36.3 °F 93% 29.78 in 10.0 mi NW 11.5 mph 21.9 mph N/A   Overcast
6:15 PM 38.5 °F 32.7 °F 35.2 °F 88% 29.79 in 10.0 mi NW 8.1 mph 17.3 mph N/A   Overcast
6:35 PM 38.7 °F 32.4 °F 35.1 °F 87% 29.81 in 10.0 mi NW 9.2 mph 17.3 mph N/A   Overcast
6:55 PM 38.8 °F 32.1 °F 34.5 °F 84% 29.83 in 10.0 mi WNW 10.4 mph 23.0 mph N/A   Overcast
7:15 PM 38.8 °F 33.2 °F 34.0 °F 83% 29.84 in 10.0 mi WNW 8.1 mph 19.6 mph N/A   Overcast
7:35 PM 39.0 °F 31.8 °F 34.2 °F 83% 29.85 in 10.0 mi WNW 11.5 mph 18.4 mph N/A   Overcast
7:55 PM 39.0 °F 31.4 °F 34.2 °F 83% 29.86 in 10.0 mi WNW 12.7 mph 23.0 mph N/A   Overcast
8:15 PM 39.0 °F 32.8 °F 33.4 °F 80% 29.87 in 10.0 mi WNW 9.2 mph 19.6 mph N/A   Overcast
8:35 PM 39.2 °F 32.0 °F 33.6 °F 80% 29.88 in 10.0 mi WNW 11.5 mph 20.7 mph N/A   Overcast
8:55 PM 39.2 °F 30.5 °F 33.3 °F 79% 29.90 in 10.0 mi NW 16.1 mph 21.9 mph N/A   Overcast
9:15 PM 39.2 °F 31.6 °F 32.9 °F 78% 29.92 in 10.0 mi WNW 12.7 mph 19.6 mph N/A   Overcast
9:35 PM 39.2 °F 31.6 °F 33.3 °F 79% 29.94 in 10.0 mi WNW 12.7 mph 23.0 mph N/A   Overcast
9:55 PM 39.2 °F 31.6 °F 33.6 °F 80% 29.95 in 10.0 mi WNW 12.7 mph 21.9 mph N/A   Overcast
10:15 PM 39.4 °F 31.8 °F 34.2 °F 82% 29.97 in 10.0 mi WNW 12.7 mph 21.9 mph N/A   Overcast
10:35 PM 39.2 °F 31.2 °F 33.3 °F 79% 29.98 in 10.0 mi WNW 13.8 mph 19.6 mph N/A   Overcast
10:55 PM 39.2 °F 32.0 °F 32.4 °F 76% 30.00 in 10.0 mi WNW 11.5 mph 18.4 mph N/A   Overcast
11:15 PM 39.2 °F 31.6 °F 32.7 °F 78% 30.01 in 10.0 mi WNW 12.7 mph 21.9 mph N/A   Overcast
11:35 PM 39.2 °F 30.5 °F 32.2 °F 76% 30.03 in 10.0 mi WNW 16.1 mph 23.0 mph N/A   Overcast
11:55 PM 38.8 °F 30.8 °F 32.0 °F 76% 30.04 in 10.0 mi WNW 13.8 mph 19.6 mph N/A   Overcast